GW6618 Weather Reports


time (UTC)temp
C
wind
direction
speed
KPH
gust
KPH
rain 1hr
cm
rain 24hr
cm
rain mn
cm
humidity
%
barometer
mb
20260504190304 14 256 16.1 32.2 0.00 0.00 0.00 43 1001.0
20260504185804 15 308 14.5 24.1 0.00 0.00 0.00 42 1000.9
20260504185305 15 345 16.1 29.0 0.00 0.00 0.00 42 1000.7
20260504184804 15 351 19.3 35.4 0.00 0.00 0.00 43 1000.6
20260504184305 15 359 11.3 32.2 0.00 0.00 0.00 43 1000.6
20260504183304 15 328 11.3 24.1 0.00 0.00 0.00 43 1000.4
20260504182805 15 294 14.5 19.3 0.00 0.00 0.00 43 1000.4
20260504182304 15 251 12.9 19.3 0.00 0.00 0.00 42 1000.4
20260504181804 15 250 9.7 20.9 0.00 0.00 0.00 40 1000.3
20260504180806 15 283 12.9 20.9 0.00 0.00 0.00 38 1000.2
20260504180304 15 298 11.3 20.9 0.00 0.00 0.00 37 1000.2
20260504175304 15 304 9.7 20.9 0.00 0.00 0.00 38 999.9
20260504174804 15 281 9.7 24.1 0.00 0.00 0.00 37 999.9
20260504174304 15 304 12.9 33.8 0.00 0.00 0.00 37 999.9
20260504173804 15 299 14.5 27.4 0.00 0.00 0.00 36 999.9
20260504173305 15 301 12.9 27.4 0.00 0.00 0.00 39 999.9
20260504172804 16 306 16.1 33.8 0.00 0.00 0.00 36 1000.0
20260504172305 16 341 16.1 20.9 0.00 0.00 0.00 39 999.7
20260504171804 16 345 12.9 29.0 0.00 0.00 0.00 38 999.9
20260504171304 15 265 11.3 24.1 0.00 0.00 0.00 39 999.8
20260504170805 15 305 16.1 27.4 0.00 0.00 0.00 38 999.8
20260504170304 15 281 11.3 27.4 0.00 0.00 0.00 43 999.7
20260504160304 15 256 11.3 24.1 0.00 0.00 0.00 43 999.6
20260504150304 15 200 11.3 29.0 0.00 0.00 0.00 43 999.0
20260504141304 14 323 12.9 27.4 0.00 0.00 0.00 43 999.1
20260504140805 14 335 9.7 25.7 0.00 0.00 0.00 43 999.0
20260504140304 14 319 9.7 19.3 0.00 0.00 0.00 43 998.9
20260504130304 15 321 11.3 25.7 0.00 0.00 0.00 47 997.9
20260504120305 15 229 9.7 16.1 0.00 0.00 0.00 43 997.1
20260504100304 13 208 12.9 19.3 0.00 0.00 0.00 44 996.6
20260504081804 13 211 8.0 16.1 0.00 0.00 0.00 43 998.4
20260504081305 13 208 8.0 16.1 0.00 0.00 0.00 43 998.4
20260504080805 13 207 8.0 12.9 0.00 0.00 0.00 43 998.7
20260504080304 13 212 9.7 14.5 0.00 0.00 0.00 43 998.7
20260504070305 14 237 8.0 16.1 0.00 0.00 0.00 41 999.7
20260504050304 12 201 3.2 8.0 0.00 0.00 0.00 47 1002.1
20260504044803 13 212 3.2 3.2 0.00 0.00 0.00 47 1002.3
20260504043804 13 212 1.6 3.2 0.00 0.00 0.00 46 1002.5
20260504043305 13 212 1.6 1.6 0.00 0.00 0.00 45 1002.7
20260504042805 13 212 1.6 3.2 0.00 0.00 0.00 45 1002.7
20260504042306 13 212 0.0 1.6 0.00 0.00 0.00 45 1002.8
20260504041804 13 212 0.0 3.2 0.00 0.00 0.00 46 1003.0
20260504040804 13 236 3.2 3.2 0.00 0.00 0.00 46 1003.3
20260504035804 13 236 1.6 3.2 0.00 0.00 0.00 45 1003.5
20260504035305 13 236 1.6 3.2 0.00 0.00 0.00 45 1003.7
20260504034304 13 236 0.0 0.0 0.00 0.00 0.00 43 1003.8
20260504033804 13 236 0.0 0.0 0.00 0.00 0.00 43 1003.9
20260504033304 13 236 0.0 0.0 0.00 0.00 0.00 43 1004.0
20260504032804 13 236 0.0 0.0 0.00 0.00 0.00 42 1004.2
20260504032305 13 236 0.0 0.0 0.00 0.00 0.00 42 1004.2
20260504031804 13 236 0.0 3.2 0.00 0.00 0.00 42 1004.3
20260504031305 14 236 0.0 0.0 0.00 0.00 0.00 42 1004.4
20260504030804 14 236 0.0 0.0 0.00 0.00 0.00 41 1004.4
20260504030304 14 236 0.0 0.0 0.00 0.00 0.00 40 1004.4
20260504025804 15 236 0.0 0.0 0.00 0.00 0.00 39 1004.5
20260504025304 15 236 0.0 0.0 0.00 0.00 0.00 38 1004.5
20260504024804 15 236 0.0 0.0 0.00 0.00 0.00 38 1004.5
20260504024304 15 236 0.0 0.0 0.00 0.00 0.00 36 1004.6
20260504023805 16 236 0.0 0.0 0.00 0.00 0.00 36 1004.6
20260504023304 16 236 0.0 0.0 0.00 0.00 0.00 35 1004.6
20260504022804 16 236 0.0 0.0 0.00 0.00 0.00 35 1004.6
20260504022305 16 236 0.0 0.0 0.00 0.00 0.00 34 1004.7
20260504021305 16 214 1.6 3.2 0.00 0.00 0.00 34 1004.7
20260504020803 17 210 1.6 3.2 0.00 0.00 0.00 34 1004.8
20260504020305 17 250 3.2 4.8 0.00 0.00 0.00 33 1004.8
20260504015804 17 210 1.6 3.2 0.00 0.00 0.00 34 1004.8
20260504015304 17 198 0.0 3.2 0.00 0.00 0.00 32 1004.8
20260504014805 17 214 1.6 3.2 0.00 0.00 0.00 33 1004.7
20260504014304 17 217 1.6 1.6 0.00 0.00 0.00 31 1004.8
20260504013805 17 242 1.6 3.2 0.00 0.00 0.00 31 1004.8
20260504012304 18 203 1.6 3.2 0.00 0.00 0.00 29 1004.8
20260504011805 18 215 1.6 3.2 0.00 0.00 0.00 29 1004.9
20260504011305 18 208 1.6 3.2 0.00 0.00 0.00 29 1004.9
20260504010804 19 210 1.6 1.6 0.00 0.00 0.00 28 1004.9
20260504010304 19 174 1.6 4.8 0.00 0.00 0.00 27 1004.9
20260504005305 19 263 1.6 3.2 0.00 0.00 0.00 26 1005.0
20260504004303 20 187 3.2 4.8 0.00 0.00 0.00 25 1005.1
20260504003804 20 264 3.2 8.0 0.00 0.00 0.00 25 1005.2
20260504003305 20 256 1.6 8.0 0.00 0.00 0.00 25 1005.1
20260504002805 20 286 4.8 11.3 0.00 0.00 0.00 25 1005.2
20260504002304 20 262 3.2 11.3 0.00 0.00 0.00 24 1005.2
20260504001806 20 274 4.8 12.9 0.00 0.00 0.00 24 1005.3
20260504001305 20 331 4.8 24.1 0.00 0.00 0.00 25 1005.3
20260504000805 20 255 4.8 9.7 0.00 0.00 0.00 25 1005.3
20260504000304 20 280 4.8 12.9 0.00 0.00 0.00 25 1005.3
20260503235805 20 309 4.8 11.3 0.00 0.00 0.00 24 1005.4
20260503235305 21 286 3.2 12.9 0.00 0.00 0.00 24 1005.3
20260503234805 21 251 3.2 11.3 0.00 0.00 0.00 24 1005.3
20260503234304 21 244 6.4 12.9 0.00 0.00 0.00 24 1005.4
20260503233804 21 288 8.0 12.9 0.00 0.00 0.00 23 1005.3
20260503233304 21 278 4.8 12.9 0.00 0.00 0.00 24 1005.4
20260503232305 21 348 3.2 11.3 0.00 0.00 0.00 25 1005.4
20260503231804 21 269 8.0 16.1 0.00 0.00 0.00 24 1005.4
20260503231305 21 329 6.4 16.1 0.00 0.00 0.00 25 1005.5
20260503230805 21 244 3.2 11.3 0.00 0.00 0.00 24 1005.5
20260503230305 21 301 4.8 11.3 0.00 0.00 0.00 24 1005.6
20260503225305 21 351 6.4 14.5 0.00 0.00 0.00 23 1005.7
20260503224804 21 221 3.2 9.7 0.00 0.00 0.00 24 1005.8
20260503224304 21 230 8.0 12.9 0.00 0.00 0.00 23 1005.8
20260503223804 21 257 6.4 16.1 0.00 0.00 0.00 25 1005.9
20260503223304 21 258 3.2 12.9 0.00 0.00 0.00 23 1005.8
20260503222304 21 330 6.4 12.9 0.00 0.00 0.00 25 1005.9
20260503221804 21 302 4.8 11.3 0.00 0.00 0.00 25 1005.8
20260503221305 21 259 6.4 12.9 0.00 0.00 0.00 24 1005.9
20260503220304 21 272 8.0 14.5 0.00 0.00 0.00 24 1005.9
20260503215804 21 252 8.0 12.9 0.00 0.00 0.00 22 1006.0
20260503215304 21 313 8.0 14.5 0.00 0.00 0.00 23 1006.1
20260503214804 21 258 8.0 12.9 0.00 0.00 0.00 22 1006.1
20260503214305 21 263 9.7 19.3 0.00 0.00 0.00 23 1006.2
20260503213804 21 289 8.0 11.3 0.00 0.00 0.00 22 1006.1
20260503213304 21 316 8.0 20.9 0.00 0.00 0.00 25 1006.3
20260503212804 21 353 8.0 19.3 0.00 0.00 0.00 23 1006.4
20260503212305 21 239 8.0 14.5 0.00 0.00 0.00 24 1006.4
20260503211804 21 352 8.0 12.9 0.00 0.00 0.00 24 1006.3
20260503211304 21 258 8.0 14.5 0.00 0.00 0.00 23 1006.4
20260503210804 21 309 4.8 11.3 0.00 0.00 0.00 25 1006.3
20260503210305 21 299 3.2 12.9 0.00 0.00 0.00 27 1006.4
20260503205305 21 351 9.7 12.9 0.00 0.00 0.00 23 1006.6
20260503204804 21 24 6.4 19.3 0.00 0.00 0.00 26 1006.6
20260503204304 21 358 11.3 16.1 0.00 0.00 0.00 24 1006.6
20260503203804 21 341 14.5 19.3 0.00 0.00 0.00 21 1006.7
20260503203304 20 34 4.8 16.1 0.00 0.00 0.00 25 1006.7
20260503202804 20 345 9.7 16.1 0.00 0.00 0.00 24 1006.7
20260503202304 20 355 11.3 27.4 0.00 0.00 0.00 22 1006.8
20260503201804 21 319 8.0 20.9 0.00 0.00 0.00 25 1006.8
20260503201305 20 348 11.3 20.9 0.00 0.00 0.00 24 1006.8
20260503200804 20 0 8.0 16.1 0.00 0.00 0.00 26 1006.8
20260503200304 20 349 9.7 11.3 0.00 0.00 0.00 25 1006.9
20260503195804 20 358 12.9 20.9 0.00 0.00 0.00 25 1007.0
20260503195304 21 8 8.0 16.1 0.00 0.00 0.00 28 1007.0
20260503194804 20 344 4.8 12.9 0.00 0.00 0.00 29 1007.2
20260503194304 20 272 11.3 19.3 0.00 0.00 0.00 25 1007.2
20260503193304 20 341 12.9 20.9 0.00 0.00 0.00 26 1007.3
20260503192805 20 9 14.5 24.1 0.00 0.00 0.00 29 1007.4
20260503192305 20 2 16.1 35.4 0.00 0.00 0.00 27 1007.4
20260503191804 20 289 8.0 24.1 0.00 0.00 0.00 29 1007.3
20260503191305 20 9 19.3 25.7 0.00 0.00 0.00 27 1007.3
20260503190806 20 352 12.9 24.1 0.00 0.00 0.00 29 1007.4